sat.trackr.live / text

‹ back to catalog

STARLINK-35163

NORAD 65507 · 2025-198R

PAYLOAD ACTIVE UNKNOWN

§ Identity

Operator
Country
US
Launch date
2025-09-05
Launch site
AFETR
Launch vehicle
Mass (kg)
RCS (m²)

Purposes: comms

External: N2YO · Heavens-Above · Gunter

§ Orbital elements

Epoch: 2026-05-25T02:06:03.806784Z

Period
94.11 min
Inclination
53.1600°
Eccentricity
0.0001338
Mean motion
15.30201941 rev/d
Perigee alt
474.3 km
Apogee alt
476.1 km
Semi-major
6,853.3 km
B*
6.4356e-4
RAAN
276.3716°
Arg perigee
79.2893°
Mean anomaly
280.8259°
Rev number
4,031

§ Raw data

STARLINK-351631 65507U 25198R   26145.08754406  .00018751  00000+0  64356-3 0  99982 65507  53.1600 276.3716 0001338  79.2893 280.8259 15.30201941 40313

JSON: /api/v1/satellites/65507 · /tle

For live sub-satellite position, see the globe view (requires WebGL).

§ Visibility from observer

Set your observer location to see the next 7 days of passes ≥ 10°. The values pass through the URL so the page stays shareable.

No JS? Fill the form by hand. The geolocation button needs JavaScript.